Regional Weather Roundup
Issued by NWS Sioux Falls, SD

Home | Current Version | Previous Version | Text Only | Print | Product List | Glossary On
Versions: 1 2 3 4 5 6 7 8 9 10 11 12 13 14 15 16 17 18 19 20 21 22 23 24 25 26 27 28 29 30 31 32 33 34 35 36 37 38 39 40 41 42 43 44 45 46 47 48 49 50
000
ASUS43 KFSD 091810
RWRFSD

WEATHER ROUNDUP FOR SE SOUTH DAKOTA/SW MINNESOTA/NW IOWA
NATIONAL WEATHER SERVICE SIOUX FALLS SD
1200 PM CST TUE FEB 09 2016

NOTE: "FAIR" INDICATES FEW OR NO CLOUDS BELOW 12,000 FEET WITH NO
SIGNIFICANT WEATHER AND OR OBSTRUCTIONS TO VISIBILITY.


SDZ038>040-050-052>070-091900-
SOUTHEAST SOUTH DAKOTA

CITY           SKY/WX    TMP DP  RH WIND       PRES   REMARKS
BROOKINGS      CLOUDY    14   6  70 N14       30.22  WCI  -1
CHAMBERLAIN    CLOUDY    27  10  47 W8        30.29F WCI  19
6HR MIN TEMP:  20; 6HR MAX TEMP:  27;

HURON          CLOUDY    24  10  55 N9        30.29F WCI  14
6HR MIN TEMP:  13; 6HR MAX TEMP:  24;

MADISON        CLOUDY    14   9  79 NW16      30.24S WCI  -2
MITCHELL       CLOUDY    25  12  58 N16       30.31F WCI  12
6HR MIN TEMP:  14; 6HR MAX TEMP:  25;

SIOUX FALLS    CLOUDY    18   5  57 N16       30.24S WCI   3
6HR MIN TEMP:   6; 6HR MAX TEMP:  18;

WINNER         CLOUDY    27   8  44 SW7       30.29F WCI  19
YANKTON        SUNNY     21   9  58 NW17      30.29F WCI   7
$$

MNZ071-072-080-081-089-090-097-098-091900-
SOUTHWEST MINNESOTA

CITY           SKY/WX    TMP DP  RH WIND       PRES   REMARKS
FAIRMONT       SUNNY     10   1  67 NW21G31   30.14F WCI  -9
JACKSON        SUNNY     12   3  67 NW25G33   30.15F WCI  -8
LUVERNE        CLOUDY    16   5  62 N15       30.24S WCI   1
MARSHALL       CLOUDY    13   6  74 NW21      30.22F WCI  -5
6HR MIN TEMP:   4; 6HR MAX TEMP:  13;

MONTEVIDEO     CLOUDY    14   7  73 N16G24    30.25F WCI  -2
PIPESTONE      SUNNY     16   0  48 N15G25    30.19S WCI   1
REDWOOD FALLS  MOSUNNY   15   4  61 N15G26    30.20F WCI   0
TRACY          MOSUNNY   14   7  73 NW17G25   30.21F WCI  -3
WINDOM         SUNNY     10   3  72 NW26      30.16F WCI -11
WORTHINGTON    PTSUNNY   10   3  72 NW22      30.19F WCI  -9
$$

IAZ001>003-012>014-020>022-031-032-NEZ013-014-SDZ071-091900-
NORTHWEST IOWA

CITY           SKY/WX    TMP DP  RH WIND       PRES   REMARKS
CHEROKEE       SUNNY     13   4  67 N15G23    30.23F WCI  -3
DENISON        SUNNY     14   5  67 N22       30.21S WCI  -4
ESTHERVILLE    SUNNY     11   4  73 NW26      30.17R WCI -10
LE MARS        MOSUNNY   16   7  67 NW9       30.28S WCI   4
ORANGE CITY    MOSUNNY   12   5  73 N13       30.23S WCI  -3
SHELDON        MOSUNNY   12   5  73 N16G24    30.20F WCI  -4
SIOUX CITY     SUNNY     18   5  57 NW17      30.28S WCI   3
6HR MIN TEMP:  11; 6HR MAX TEMP:  18;

SPENCER        SUNNY     12   2  64 NW24      30.20S WCI  -8
6HR MIN TEMP:   4; 6HR MAX TEMP:  12;

STORM LAKE     SUNNY     12   5  73 NW18G24   30.20R WCI  -5
$$

ABBREVIATIONS USED IN REMARKS
   TC - TEMPERATURE IN CELSIUS
  WCI - WIND CHILL INDEX
   HX - HEAT INDEX
  VSB - VISIBILITY




USA.gov is the U.S. government's official web portal to all federal, state and local government web resources and services.